Regional Weather Roundup
Issued by NWS New Orleans/Baton Rouge, LA

Home | Current Version | Previous Version | Graphics & Text | Print | Product List | Glossary On
Versions: 1 2 3 4 5 6 7 8 9 10 11 12 13 14 15 16 17 18 19 20 21 22 23 24 25 26 27 28 29 30 31 32 33 34 35 36 37 38 39 40 41 42 43 44 45 46 47 48 49 50
003
ASUS44 KLIX 301410
RWRLIX
NEW ORLEANS REGIONAL WEATHER ROUNDUP
NATIONAL WEATHER SERVICE NEW ORLEANS LA
900 AM CDT WED JUL 30 2014

NOTE: "FAIR" INDICATES FEW OR NO CLOUDS BELOW 12,000 FEET WITH NO
      SIGNIFICANT WEATHER AND/OR OBSTRUCTIONS TO VISIBILITY.
      SKY/WX - SKY CONDITION AND SIGNIFICANT WEATHER.
      TMP - AIR TEMPERATURE.     DP    - DEWPOINT TEMPERATURE.
      RH  - RELATIVE HUMIDITY.   PRES  - PRESSURE.
      HI  - HEAT INDEX.          WCI   - WIND CHILL INDEX.

*  THESE STATIONS ARE NOT NWS OR FAA STATIONS AND ARE NOT UNDER
   NWS QUALITY CONTROL.

LAZ038-040-048-061>063-065>067-069-301500-
SOUTHEAST LOUISIANA

CITY           SKY/WX    TMP DP  RH WIND       PRES   REMARKS
N.O. AUDUBON     N/A     83  64  53 MISG        N/A
N.O. INTL ARPT MOSUNNY   80  63  55 NE13      30.07S
N.O. LAKEFRONT MOSUNNY   78  61  55 NE10      30.08S
N.O. DOWNTOWN*   N/A     79  59  50 N3        30.08R
SLIDELL        SUNNY     75  61  61 N7        30.08R
BATON ROUGE    SUNNY     75  62  64 NE8       30.09S
BOOTHVILLE     SUNNY     81  68  64 NE7       30.06S
BELLE CHASSE   MOSUNNY   78  64  61 NE9       30.07R
BOGALUSA*        N/A     74  61  64 NE6       30.11S
GALLIANO*      NOT AVBL
NEW ROADS*       N/A     74  63  69 NE5       30.10S
GONZALES*        N/A     75  66  74 N5        30.08S
HAMMOND*       SUNNY     75  59  57 NE5       30.11S
HOUMA*         SUNNY     79  64  61 NE6       30.07S
PORT FOURCHON* SUNNY     81  72  74 NE9       30.07S

$$

MSZ070-080>082-301500-
SOUTHERN MISSISSIPPI

CITY           SKY/WX    TMP DP  RH WIND       PRES   REMARKS
MCCOMB         SUNNY     73  58  59 NE6       30.12R
GULFPORT       SUNNY     79  57  46 NE7       30.06S
BILOXI         SUNNY     76  59  56 NE8       30.06S
PASCAGOULA     SUNNY     75  59  57 NE6       30.06S
STENNIS ARPT*  SUNNY    N/A N/A N/A CALM      30.08S

$$

COASTAL OBSERVATIONS
LAKE AND NEARSHORE STATIONS

STATION/POSITION TIME  TEMP    WIND        PRES    WAVE
                       AIR SEA DIR/SP/G            HT/PER
                 (UTC) (F)     (DEG/KT/KT) (MB)    (FT/S)
PASCAGOULA       1400   75      30/  8/ 11 1017.3
WAVELAND YACHT   1400   73      50/  6/  8 1017.6
GRAND ISLE       1400   80 86   50/  7/ 10 1018.4
SOUTHWEST PASS   1400   84 84   50/ 11/ 13 1017.6
NEW CANAL        1400   76 82   70/ 11/ 12 1018.8
SHELL BEACH      1400   78 79   60/  8/ 10 1018.0

OFFSHORE STATIONS

STATION/POSITION TIME  TEMP    WIND        PRES    WAVE
                       AIR SEA DIR/SP/G            HT/PER
                 (UTC) (F)     (DEG/KT/KT) (MB)    (FT/S)
64 S DAUPHIN ISL 1255   81 85   60/ 10/ 12 1017.3

$$




USA.gov is the U.S. government's official web portal to all federal, state and local government web resources and services.